Location: Garshuizen
(53.3675°N, 6.7248°E)
Time: 04:53:27
(UTC+00:00)

Cosmos 1758 Rocket - Pass Details

Date: 15 May 2026
Orbit: 596 x 627 km, 82.5° (Epoch: 6 June)

Event Time Altitude Azimuth Distance (km) Brightness Sun altitude
Rises 20:13:51 0° 349° (NNW) 2,895 8.0 -6.3°
Reaches altitude 10° 20:16:05 10° 350° (N) 1,990 7.1 -6.5°
Maximum altitude 20:20:30 83° 79° (E) 632 3.6 -7.0°
Drops below altitude 10° 20:24:55 10° 167° (SSE) 1,990 5.6 -7.4°
Enters shadow 20:25:52 - 168° (SSE) 2,372 6.0 -7.5°
